SCP
1 1 1 1 1 1 2 2 2 2 2 2 2 2 2 2 2 2 1 1 1 1 1 1 1 1 1 1 1 1 1 1 1 1 1 0 0 0 0 0 0 0 0
1 1 1 1 1 1 1 2 2 2 2 2 2 2 2 2 1 1 1 1 1 1 1 1 1 1 1 1 1 1 1 1 1 1 0 0 0 0 0 0 0 0 0
1 0 0 0 1 1 1 1 2 2 2 2 1 1 1 1 1 1 1 1 1 1 1 1 1 1 1 1 1 1 1 1 1 0 0 0 0 0 0 0 0 0 0
0 0 0 0 0 1 1 1 1 1 1 1 1 1 1 1 1 1 1 1 1 1 1 0 0 0 0 1 1 1 1 1 0 0 0 1 1 1 0 0 0 0 0
0 0 0 0 0 0 1 1 1 1 1 1 1 1 1 1 1 1 1 1 1 0 0 0 0 0 0 1 1 1 1 1 0 0 1 1 1 1 0 0 0 0 0
0 0 0 0 0 0 0 1 1 1 1 1 1 1 1 1 1 1 1 1 1 0 0 0 0 0 1 1 1 1 1 1 1 1 1 1 1 1 1 0 0 0 0
0 0 0 0 0 0 0 0 1 1 1 1 1 1 1 1 1 1 0 0 0 0 0 0 0 0 0 0 1 1 1 1 1 1 1 1 1 1 1 1 0 0 0
0 0 0 0 0 0 0 0 0 0 0 0 1 1 1 1 0 0 0 0 0 0 0 0 0 0 0 0 0 0 0 0 0 0 1 1 1 1 1 1 1 1 0
0 0 0 0 0 0 0 0 0 0 0 0 0 0 0 0 0 0 0 0 0 0 0 0 0 0 0 0 0 0 0 0 0 0 0 1 1 1 1 1 1 1 1
0 0 0 0 0 0 0 0 0 0 0 0 0 0 0 0 0 0 0 0 0 0 0 0 0 0 0 0 0 0 0 0 0 0 0 0 1 1 1 1 1 1 1
0 0 0 0 0 0 0 0 0 0 0 0 0 0 0 0 0 0 0 0 0 0 0 0 0 0 0 0 0 0 0 0 0 0 0 0 0 1 1 1 1 1 1
0 0 0 0 0 0 0 0 0 0 0 0 0 0 0 0 0 0 0 0 0 0 0 0 0 0 0 0 0 0 0 0 0 0 0 0 0 0 0 0 0 0 0
0 0 0 0 0 0 0 0 0 0 0 0 0 0 0 0 0 0 0 0 0 0 0 0 0 0 0 0 0 0 0 0 0 0 0 0 0 0 0 0 0 0 0
0 0 0 0 0 0 0 0 0 0 0 0 0 0 0 0 0 0 0 0 0 0 0 0 0 0 0 0 0 0 0 0 0 0 0 0 0 0 0 0 0 0 0
0 0 0 0 0 0 0 0 0 0 0 0 0 0 0 0 0 0 0 0 0 0 0 0 0 0 0 0 0 0 0 0 0 0 0 0 0 0 0 0 0 0 0
0 0 0 0 0 0 0 0 0 0 0 0 0 0 0 0 0 0 0 0 0 0 0 0 0 0 0 0 0 0 0 0 0 0 0 0 0 0 0 0 0 0 0
0 0 0 0 0 0 0 0 0 0 0 0 0 0 0 0 0 0 0 0 0 0 0 0 0 0 0 0 0 0 0 0 0 0 0 0 0 0 0 0 0 0 0
0 0 0 0 0 0 0 0 0 0 0 0 0 0 0 0 0 0 0 0 0 0 0 0 0 0 0 0 0 0 0 0 0 0 0 0 0 0 0 0 0 0 0
0 0 0 0 0 0 0 0 0 0 0 0 0 0 0 0 0 0 0 0 0 0 0 0 0 0 0 0 0 0 0 0 0 0 0 0 0 0 0 0 0 0 0
0 0 0 0 0 0 0 0 0 0 0 0 0 0 0 0 0 0 0 0 0 0 0 0 0 0 0 0 0 0 0 0 0 0 0 0 0 0 0 0 0 0 0
0 0 0 0 0 0 0 0 0 0 0 0 0 0 0 0 0 0 0 0 0 0 0 0 0 0 0 0 0 0 0 0 0 0 0 0 0 0 0 0 0 0 0
0 0 0 0 0 0 0 0 0 0 0 0 0 0 0 0 0 0 0 0 0 0 0 0 0 0 0 0 0 0 0 0 0 0 0 0 0 0 0 0 0 0 0
0 0 0 0 0 0 0 0 0 0 0 0 0 0 0 0 0 0 0 0 0 0 0 0 0 0 0 0 0 0 0 0 0 0 0 0 0 0 0 0 0 0 0
0 0 0 0 0 0 0 0 0 0 0 0 0 0 0 0 0 0 0 0 0 0 0 0 0 0 0 0 0 0 0 0 0 0 0 0 0 0 0 0 0 0 0
0 0 0 0 0 0 0 0 0 0 0 0 0 0 0 0 0 0 0 0 0 0 0 0 0 0 0 0 0 0 0 0 0 0 0 0 0 0 0 0 0 0 0
0 0 0 0 0 0 0 0 0 0 0 0 0 0 0 0 0 0 0 0 0 0 0 0 0 0 0 0 0 0 0 0 0 0 0 0 0 0 0 0 0 0 0
Wind_Speed
9 8 8 8 9 8 7 7 7 6 4 3 3 2 2 2 1 1 1 2 2 2 3 5 5 4 4 5 5 4 5 5 4 4 4 4 5 6 5 6 6 8 10
8 8 7 7 7 6 5 5 5 5 5 3 2 2 2 2 2 1 1 2 3 3 3 5 5 4 4 5 5 4 3 5 5 4 3 3 4 5 8 6 6 6 6
8 7 6 6 6 5 5 5 4 4 5 5 3 3 2 3 2 2 2 2 2 3 3 4 4 4 4 4 5 5 5 4 3 4 4 3 3 3 3 6 6 5 4
7 6 6 5 5 4 4 3 3 4 4 5 5 6 5 5 4 3 2 3 3 3 3 3 4 3 3 3 4 5 4 4 3 4 3 1 0 1 2 3 4 6 5
6 5 5 4 4 5 4 3 3 3 3 4 5 5 6 5 5 4 5 4 4 4 4 3 2 2 2 2 2 2 1 2 3 3 2 3 2 3 2 3 3 3 4
4 4 4 3 4 5 5 5 4 4 4 4 5 5 6 7 8 7 6 5 3 3 4 3 1 2 2 1 1 1 2 3 3 3 2 2 2 2 2 3 4 4 4
4 4 4 4 4 5 5 4 4 5 5 5 6 6 6 7 8 8 6 5 4 4 3 2 2 2 2 2 2 2 3 3 4 3 3 3 3 2 2 2 2 3 3
6 7 7 6 5 7 6 6 6 5 5 5 6 6 7 6 6 6 6 6 5 5 4 3 3 3 3 3 2 2 3 3 3 4 3 3 3 3 2 1 1 2 2
8 9 9 8 8 7 7 7 6 6 6 7 7 7 6 6 7 7 8 7 6 7 5 4 4 4 4 3 3 3 3 3 3 3 3 3 3 3 3 2 1 2 2
10 10 10 10 10 9 8 8 7 7 7 7 7 9 7 7 7 7 8 8 8 7 7 6 6 5 4 4 5 4 4 4 3 3 4 3 3 3 3 2 2 2 2
12 11 11 11 11 12 11 10 9 9 8 7 7 8 8 7 7 7 8 7 7 8 8 7 6 6 6 5 5 5 6 5 5 4 4 4 4 3 2 2 2 2 2
11 12 12 12 12 12 12 11 10 10 9 8 8 8 8 8 8 9 8 8 8 8 8 7 6 7 7 5 5 6 7 6 6 5 5 5 4 4 3 3 3 3 2
11 12 11 11 11 11 11 11 11 11 11 10 10 9 10 9 9 9 8 8 8 9 9 8 7 7 7 7 6 6 7 6 5 5 5 5 4 4 3 4 4 3 4
11 11 10 9 10 10 10 11 12 11 12 12 12 10 10 10 9 9 9 8 8 9 9 8 8 8 7 8 7 7 7 7 6 5 5 5 5 5 4 5 4 4 4
12 12 11 10 10 10 10 11 11 11 12 12 12 11 10 10 10 9 9 9 8 10 8 8 8 7 7 9 8 7 9 7 7 6 5 6 6 6 4 4 3 4 4
13 13 13 12 11 11 11 12 11 11 12 12 13 11 11 11 10 10 10 9 8 8 8 8 8 8 10 9 8 7 7 6 6 6 6 6 6 7 7 7 5 4 4
13 13 13 12 11 11 11 12 12 12 12 12 12 12 11 12 11 12 11 10 9 8 8 8 9 9 9 9 9 10 6 6 5 6 5 7 8 8 6 9 10 8 8
13 13 12 12 12 12 11 11 13 13 12 12 12 12 11 12 11 10 10 9 8 8 8 8 9 8 9 9 9 9 7 6 6 6 6 6 7 7 5 5 7 7 8
12 11 12 12 11 12 12 13 13 13 13 13 12 13 12 12 12 11 10 8 8 8 8 8 8 7 7 8 8 9 6 6 7 7 8 8 8 8 8 5 5 5 5
11 11 12 12 11 11 12 13 14 13 13 13 13 13 12 12 12 10 9 8 7 8 8 7 6 6 6 6 8 9 5 6 6 6 6 9 9 9 9 7 6 6 5
11 11 11 11 10 11 12 13 13 13 13 13 13 12 11 11 10 8 7 7 7 6 6 6 5 4 5 5 8 9 6 5 5 5 5 5 8 10 11 9 6 6 4
12 12 11 10 10 11 11 13 13 13 13 13 13 12 11 11 9 8 7 7 6 6 5 4 4 2 2 4 6 9 9 6 4 4 3 3 6 9 10 9 7 6 4
11 11 11 11 11 11 11 13 13 12 13 13 12 11 11 9 8 7 7 5 4 3 3 3 2 1 1 1 3 7 8 8 5 3 1 3 6 7 8 10 9 7 5
10 10 11 12 12 12 12 12 12 12 12 13 12 10 9 9 7 5 5 4 4 4 3 3 2 1 1 1 0 2 4 6 6 5 4 6 7 6 6 6 7 7 6
10 10 10 11 12 12 12 12 11 11 12 12 11 10 9 7 6 5 4 4 3 3 4 4 3 2 2 2 2 1 0 1 2 3 4 4 5 6 6 6 6 7 7
9 9 10 11 12 12 12 11 11 11 11 11 10 8 7 6 6 5 3 3 2 1 2 3 3 2 2 2 2 2 2 2 1 2 3 4 4 5 6 6 6 7 7
Wind_Direction
81 73 65 64 62 53 49 41 33 24 14 10 355 350 340 319 314 297 325 301 287 289 282 271 263 245 240 243 232 218 223 222 216 228 239 228 216 209 199 201 204 201 202
93 80 72 67 64 58 47 48 33 18 10 7 343 322 311 287 277 295 287 285 282 275 268 262 264 255 245 242 231 217 227 226 205 206 218 211 211 217 208 192 200 205 193
88 82 75 67 60 56 46 42 31 19 9 349 334 335 307 291 307 305 293 273 270 263 266 264 257 254 247 252 248 226 224 230 224 215 212 203 198 184 193 196 191 180 178
91 81 66 52 46 44 45 42 33 22 5 347 346 340 323 322 321 317 301 299 285 275 259 262 262 261 253 251 257 238 231 220 238 238 237 230 54 168 159 208 180 167 177
78 68 52 32 20 9 12 17 23 10 354 338 329 327 322 322 319 317 299 289 274 259 253 249 253 252 251 258 281 310 270 232 235 248 252 240 220 224 192 188 168 171 174
60 48 30 21 9 356 358 358 0 353 342 328 320 314 313 311 309 303 294 286 274 261 254 244 242 259 243 239 251 266 271 269 265 267 262 245 232 233 218 183 179 185 188
26 9 2 3 356 353 358 347 346 349 343 332 325 318 308 300 291 291 296 298 295 286 263 252 230 246 253 246 222 218 246 254 265 265 267 269 256 259 253 217 199 187 181
11 358 357 360 360 355 354 347 343 335 329 324 318 313 303 297 296 304 309 302 293 289 287 263 237 224 225 239 226 223 230 232 239 250 257 273 276 282 277 248 211 199 177
0 357 355 355 358 355 350 346 344 338 331 325 317 302 299 307 307 307 299 293 294 293 298 297 273 251 237 232 230 239 232 229 235 241 240 247 266 271 277 279 248 206 201
357 357 355 358 358 352 350 350 344 336 329 324 322 319 323 313 306 303 299 296 292 290 289 283 275 263 250 237 230 232 233 225 225 230 231 227 234 259 275 271 270 251 216
357 356 355 356 351 346 346 344 341 336 330 324 321 315 310 306 303 298 294 294 295 294 287 280 277 269 256 241 235 237 229 225 224 230 229 229 227 222 243 263 257 246 229
356 356 354 353 347 343 341 337 336 332 329 327 321 314 311 308 305 301 299 299 295 290 287 279 270 268 262 245 235 244 244 228 223 225 226 229 233 223 225 231 249 252 243
359 355 353 349 343 341 336 333 329 328 328 326 323 320 316 313 308 303 298 295 292 289 285 278 270 261 260 253 238 241 250 246 232 226 226 225 224 225 229 226 227 236 245
358 352 351 346 343 339 335 329 327 328 326 324 320 317 315 311 309 305 299 292 287 282 278 274 269 261 254 251 244 240 241 241 236 232 230 230 226 222 224 235 228 227 235
353 351 347 346 342 338 333 332 331 331 327 320 316 314 313 310 306 304 298 292 288 284 281 278 272 268 258 247 238 232 237 229 227 228 227 230 228 223 217 236 223 229 228
349 348 345 343 340 337 336 335 332 329 323 317 313 312 310 308 303 300 295 292 288 284 282 279 274 266 260 253 238 235 242 226 221 229 229 229 226 220 216 214 209 207 227
347 346 343 340 337 335 335 334 328 322 319 314 312 312 313 311 308 307 307 302 297 290 281 275 271 264 260 254 239 230 238 231 220 225 228 241 237 213 209 211 211 215 220
347 345 340 337 335 337 340 332 326 321 318 317 317 317 316 314 311 307 303 300 299 291 282 278 273 264 258 245 229 220 229 236 226 222 218 225 241 240 225 225 217 210 210
348 342 338 336 336 340 337 329 324 322 323 324 323 321 317 313 310 307 305 301 295 289 282 278 268 260 249 233 222 211 229 233 232 230 224 221 223 224 220 223 233 231 226
346 341 340 337 338 339 335 328 326 328 329 327 322 319 316 312 309 306 304 300 293 287 284 277 272 260 247 223 214 212 230 233 234 235 233 232 228 213 210 213 219 229 233
345 345 341 339 341 337 334 329 329 331 328 324 320 319 316 311 305 306 305 302 297 291 287 282 278 262 245 221 210 207 226 234 231 233 225 220 211 203 205 209 214 223 230
348 345 341 341 340 339 337 331 332 330 327 325 322 320 319 318 319 316 312 308 303 301 300 296 289 273 236 216 209 207 219 241 253 246 228 197 190 193 200 208 214 205 206
347 344 341 339 339 340 338 332 330 330 329 326 323 321 322 321 319 319 320 319 321 321 321 317 302 293 272 208 210 208 217 230 246 268 202 171 186 186 199 214 210 202 212
347 344 341 339 340 340 336 332 331 333 330 327 325 325 325 327 331 333 332 341 345 341 338 338 338 337 348 24 224 211 211 218 227 237 218 193 196 211 223 204 205 212 221
346 343 341 339 340 337 335 335 337 336 333 328 328 330 329 330 330 338 347 348 17 358 335 339 346 359 18 23 1 330 264 240 236 230 212 213 206 211 216 215 209 209 212
342 342 342 340 338 337 336 338 340 337 333 328 330 331 330 330 332 333 351 28 12 4 357 354 350 31 61 61 28 25 3 328 317 248 228 230 232 230 223 217 215 214 215